Location: Houhaj�rvi
(61.2833°N, 23.0000°E)
Time: 16:44:55
(UTC+00:00)

NOSS 8 (A) - Pass Details

Date: 27 February 2020
Orbit: 381 x 1769 km, 63.3° (Epoch: 16 March)

Event Time Altitude Azimuth Distance (km) Brightness Sun altitude
Rises 17:00:45 0° 247° (WSW) 2,266 9.4 -9.7°
Reaches altitude 10° 17:02:42 10° 247° (WSW) 1,410 8.1 -10.0°
Maximum altitude 17:05:41 90° 242° (WSW) 411 4.2 -10.3°
Enters shadow 17:08:27 14° 69° (ENE) 1,324 6.2 -10.6°
